Regional Weather Roundup
Issued by NWS

Home | Current Version | Previous Version | Text Only | Print | Product List | Glossary Off
Versions: 1 2 3 4 5 6 7 8 9 10 11 12 13 14 15 16 17 18 19 20 21 22 23 24 25 26 27 28 29 30 31 32 33 34 35 36 37 38 39 40 41 42 43 44 45 46 47 48 49 50

000
ASUS43 KLSX 310859
RWRMO

WEATHER SUMMARY FOR MISSOURI
NATIONAL WEATHER SERVICE SPRINGFIELD MO
400 AM CDT FRI OCT 31 2014

NOTE: "FAIR" INDICATES FEW OR NO CLOUDS BELOW 12,000 FEET WITH NO
       SIGNIFICANT WEATHER AND/OR OBSTRUCTIONS TO VISIBILITY.
       CURRENT SKY AND/OR WEATHER CONDITIONS ARE NOT AVAILABLE FOR
       CHILLICOTHE AND FARMINGTON.

MOZ001>031-035>038-043-044-053-054-311000-
...NORTHERN AND WESTERN MISSOURI...

CITY           SKY/WX    TMP DP  RH WIND       PRES   REMARKS
KANSAS CTY INT CLOUDY    45  37  73 N24G30    30.31R
KANSAS C DTWN  CLOUDY    49  37  63 N12G28    30.30R
LEE`S SUMMIT   CLOUDY    48  38  68 N21G31    30.29R
ST JOSEPH      CLOUDY    41  31  67 N21G35    30.38R
CHILLICOTHE      N/A     46  34  62 N10G21    30.30R
KIRKSVILLE     CLOUDY    45  35  68 N22G30    30.24R

$$
MOZ066>068-077>081-088>096-101>105-311000-
...SOUTHWEST MISSOURI...

CITY           SKY/WX    TMP DP  RH WIND       PRES   REMARKS
SPRINGFIELD    CLEAR     48  40  73 NW16      30.15R
JOPLIN         CLEAR     48  40  73 N10       30.22R

$$
MOZ032>034-039>042-045>050-055>058-069>072-311000-
...CENTRAL MISSOURI...

CITY           SKY/WX    TMP DP  RH WIND       PRES   REMARKS
COLUMBIA       CLOUDY    48  43  82 N14       30.17R
JEFFERSON CITY CLOUDY    48  43  82 NW6       30.16R
ROLLA          PTCLDY    43  42  97 N8        30.11R
SEDALIA        MOCLDY    50  39  66 N18       30.22R
OSAGE BEACH    CLOUDY    48  39  71 N6        30.15S

$$
MOZ051-052-059>065-311000-
...EAST CENTRAL MISSOURI...

CITY           SKY/WX    TMP DP  RH WIND       PRES   REMARKS
ST LOUIS INTL  CLOUDY    47  44  90 N8        30.10R
SPIRIT OF STL  CLOUDY    46  43  89 NW5       30.11R
ST CHARLES     CLOUDY    46  44  93 NW7       30.11R

$$
MOZ072>076-082>087-097>100-106>115-311000-
...SOUTH CENTRAL AND SOUTHEAST MISSOURI...

CITY           SKY/WX    TMP DP  RH WIND       PRES   REMARKS
CAPE GIRARDEAU CLOUDY    48  46  93 NW6       30.03R
FARMINGTON     PTCLDY    46  43  87 NW8       30.07R
POPLAR BLUFF   CLOUDY    49  45  86 N6        30.02R
WEST PLAINS    CLEAR     49  41  74 N9        30.08R

$$



USA.gov is the U.S. government's official web portal to all federal, state and local government web resources and services.